Change the Weather History Date:

Saturday, October 13, 2012

  Actual Average Record
Temperature  
Mean Temperature 45 °F 51 °F  
Max Temperature 59 °F 61 °F 81 °F (2008)
Min Temperature 33 °F 41 °F 32 °F (2006)
Degree Days  
Heating Degree Days 20    
Month to date heating degree days  
Since 1 July heating degree days  
Cooling Degree Days 0    
Month to date cooling degree days  
Year to date cooling degree days  
Moisture  
Dew Point 42 °F    
Average Humidity 87    
Maximum Humidity 94    
Minimum Humidity 73    
Precipitation  
Precipitation 0.47 in 0.09 in 0.57 in (1999)
Month to date precipitation 1.20  
Year to date precipitation 25.55  
Snow  
Snow 0.00 in - - ()
Month to date snowfall  
Since 1 July snowfall  
Since 1 September snowfall  
Snow Depth -    
Sea Level Pressure  
Sea Level Pressure 30.06 in    
Wind  
Wind Speed 8 mph (South)    
Max Wind Speed 14 mph    
Max Gust Speed 20 mph    
Visibility 6 miles    
Events Rain    
T = Trace of Precipitation, MM = Missing Value Source: NWS Daily Summary

Daily Weather History Graph

Daily Weather History Graph

Search for Another Location

Airport or City:

Trip Planner

Search our weather history database for the weather conditions in past years. The results will help you decide how hot, cold, wet, or windy it might be!

Date:

Astronomy

Oct. 13, 2012 Rise Set
Actual Time 7:48 AM EDT 6:55 PM EDT
Civil Twilight 7:19 AM EDT 7:24 PM EDT
Nautical Twilight 6:46 AM EDT 7:57 PM EDT
Astronomical Twilight 6:13 AM EDT 8:30 PM EDT
Moon 5:34 AM EDT (10/13) 5:40 PM EDT (10/13)
Length of Visible Light 12h 04m
Length of Day
11h 07m
Waning Crescent, 5% of the Moon is Illuminated
Oct 13
Waning Crescent
Oct 15
New
Oct 21
First Quarter
Oct 29
Full
Nov 6
Last Quarter

Hourly Weather History & Observations

Time (EDT) Temp. Windchill Dew Point Humidity Pressure Visibility Wind Dir Wind Speed Gust Speed Precip Events Conditions
12:53 AM 36.0 °F 33.3 °F 28.0 °F 73% 30.38 in 10.0 mi SSE 3.5 mph - N/A   Clear
1:53 AM 37.0 °F 33.3 °F 28.9 °F 73% 30.37 in 10.0 mi SSE 4.6 mph - N/A   Clear
2:53 AM 34.0 °F 31.0 °F 28.0 °F 79% 30.36 in 10.0 mi SE 3.5 mph - N/A   Clear
3:53 AM 33.1 °F 26.9 °F 28.0 °F 82% 30.34 in 10.0 mi SE 6.9 mph - N/A   Clear
4:53 AM 37.0 °F 31.0 °F 30.0 °F 76% 30.32 in 10.0 mi South 8.1 mph - N/A   Clear
5:53 AM 37.0 °F 33.3 °F 30.9 °F 79% 30.32 in 10.0 mi SSE 4.6 mph - N/A   Clear
6:53 AM 37.9 °F 32.7 °F 32.0 °F 79% 30.32 in 10.0 mi South 6.9 mph - N/A   Partly Cloudy
7:53 AM 39.0 °F 33.4 °F 32.0 °F 76% 30.29 in 10.0 mi SSE 8.1 mph - N/A   Clear
8:53 AM 39.9 °F 37.8 °F 34.0 °F 79% 30.31 in 10.0 mi South 3.5 mph - 0.00 in Rain Light Rain
9:53 AM 39.9 °F 32.9 °F 35.1 °F 83% 30.27 in 7.0 mi South 11.5 mph - 0.02 in Rain Light Rain
10:53 AM 41.0 °F 33.9 °F 36.0 °F 82% 30.23 in 10.0 mi SSE 12.7 mph - 0.03 in Rain Light Rain
11:53 AM 43.0 °F 37.2 °F 37.9 °F 82% 30.19 in 10.0 mi South 10.4 mph - 0.00 in Rain Light Rain
12:53 PM 44.1 °F 38.1 °F 39.9 °F 85% 30.13 in 10.0 mi SSE 11.5 mph - 0.01 in Rain Light Rain
1:53 PM 45.0 °F 39.7 °F 43.0 °F 93% 30.06 in 5.0 mi SSE 10.4 mph - 0.05 in Rain Light Rain
2:53 PM 48.0 °F - 45.0 °F 89% 30.01 in 4.0 mi South 11.5 mph - 0.00 in   Overcast
3:07 PM 48.2 °F - 44.6 °F 87% 29.98 in 9.0 mi South 9.2 mph - N/A   Overcast
3:48 PM 46.4 °F 41.9 °F 44.6 °F 93% 29.96 in 7.0 mi South 9.2 mph - 0.00 in Rain Light Rain
3:53 PM 46.4 °F 41.5 °F 44.6 °F 93% 29.96 in 1.5 mi South 10.4 mph - N/A Rain Light Rain
4:53 PM 46.9 °F - 45.0 °F 93% 29.94 in 1.5 mi South 13.8 mph - 0.12 in Rain Rain
5:20 PM 48.2 °F - 44.6 °F 87% 29.92 in 1.5 mi South 10.4 mph - 0.05 in Rain Light Rain
5:53 PM 48.9 °F - 46.0 °F 90% 29.92 in 1.5 mi South 11.5 mph - 0.07 in Rain Light Rain
6:21 PM 48.2 °F - 46.4 °F 93% 29.91 in 7.0 mi SSW 11.5 mph 19.6 mph 0.00 in   Overcast
6:53 PM 50.0 °F - 46.9 °F 89% 29.91 in 5.0 mi SSW 9.2 mph - 0.00 in Rain Light Rain
7:34 PM 50.0 °F - 48.2 °F 94% 29.87 in 2.5 mi SSW 8.1 mph - 0.03 in Rain Light Rain
7:53 PM 51.8 °F - 48.2 °F 88% 29.86 in 6.0 mi South 10.4 mph - N/A Rain Light Rain
8:53 PM 51.1 °F - 48.9 °F 92% 29.85 in 5.0 mi South 10.4 mph - 0.01 in Rain Light Rain
9:32 PM 51.8 °F - 50.0 °F 94% 29.84 in 2.5 mi SSW 9.2 mph - 0.00 in   Overcast
9:53 PM 53.6 °F - 51.8 °F 94% 29.84 in 3.0 mi SSW 8.1 mph - N/A Rain Light Rain
10:07 PM 53.6 °F - 51.8 °F 94% 29.84 in 2.5 mi SSW 9.2 mph - 0.00 in   Overcast
10:53 PM 55.9 °F - 54.0 °F 93% 29.85 in 2.5 mi SSW 9.2 mph - 0.15 in   Overcast
11:22 PM 57.2 °F - 55.4 °F 94% 29.83 in 4.0 mi SW 13.8 mph - 0.01 in Rain Light Rain
11:53 PM 59.0 °F - 57.0 °F 93% 29.84 in 5.0 mi SW 11.5 mph - 0.01 in   Overcast